STARLINK-5662 (55344 NORAD) Tracking and Keplerian Element Data

This shows tracking and keplerian element data for the satellite.

Feedback or suggestion? Click here.




ElementValue
Catalog55344
NameSTARLINK-5662
Epoch Orbit1602
Epoch Day126.87253354
Epoch Year2023
RAAN179.6357
Inclination43.0011
Eccentricity0.0001439
Argument of Perigee282.5629
Mean Anonmoly77.5052
Mean Motion15.02534946
Decay Rate-2.73E-06
L11 55344U 23013P 23126.87253354 -.00000273 00000+0 -51090-5 0 9994
L22 55344 43.0011 179.6357 0001439 282.5629 77.5052 15.02534946 16025



Live tracking and technical data element details for STARLINK-5662 (NORAD 55344). STARLINK-5662 can be tracked NOW for your location showing map with azimuth and elevation plus other details from your city location.







IsCatalogInMostPopularTable: catalog: 55344, numindb: -1

Insert: records affected: 1


GetName: 55344 STARLINK-5662

Hit Count: inserted at: Mon, 05 Jun 2023 19:41:20 GMT